Regional Weather Roundup
Issued by NWS

Home | Current Version | Previous Version | Text Only | Print | Product List | Glossary On
Versions: 1 2 3 4 5 6 7 8 9 10 11 12 13 14 15 16 17 18 19 20 21 22 23 24 25 26 27 28 29 30 31 32 33 34 35 36 37 38 39 40 41 42 43 44 45 46 47 48 49 50
000
ASUS43 KLOT 291300
RWRIL

ILLINOIS REGIONAL WEATHER ROUNDUP
NATIONAL WEATHER SERVICE CHICAGO/ROMEOVILLE IL
700 AM CST THU JAN 29 2015

NOTE: "FAIR" INDICATES FEW OR NO CLOUDS BELOW 12,000 FEET WITH NO
SIGNIFICANT WEATHER AND/OR OBSTRUCTIONS TO VISIBILITY.

* THESE STATIONS ARE NOT UNDER NWS QUALITY CONTROL. THEY ALSO MAY NOT
  REPORT WEATHER SUCH AS PRECIPITATION OR FOG.

ILZ001-002-007-009-015-016-024-291400-
NORTHWEST ILLINOIS

CITY           SKY/WX    TMP DP  RH WIND       PRES   REMARKS
MOLINE         CLOUDY    34  29  82 NW17G25   29.91R WCI  23
STERLING*      CLOUDY    34  28  80 NW17G23   29.85R WCI  23
$$

ILZ003-004-008-010-011-017-018-291400-
NORTH CENTRAL ILLINOIS

CITY           SKY/WX    TMP DP  RH WIND       PRES   REMARKS
ROCKFORD       CLOUDY    33  27  78 N13       29.83R WCI  24
$$

ILZ005-006-012>014-019>023-291400-
NORTHEAST ILLINOIS

CITY           SKY/WX    TMP DP  RH WIND       PRES   REMARKS
CHICAGO-OHARE  CLOUDY    35  28  75 NW10      29.72S WCI  27
CHICAGO-MIDWAY CLOUDY    37  30  75 NW7       29.72R WCI  32
AURORA         CLOUDY    33  28  81 NW14      29.76R WCI  23
WAUKEGAN       CLOUDY    33  27  78 NW6       29.75R WCI  28
DUPAGE AIRPORT LGT RAIN  34  29  82 NW13      29.74R WCI  25
WHEELING       CLOUDY    35  27  72 NW7       29.76R WCI  29
NORTHERLY ISL    N/A     37  29  73 W10         N/A  WCI  30
$$

LMZ740>746-291400-
SOUTHERN LAKE MICHIGAN

STATION/POSITION SKY/WX   TEMP    WIND        PRES    VSBY  WAVE
                          AIR SEA DIR/SP/G                  HT/PER
                          (F)     (DEG/KT/KT) (MB)    (MI)  (FT/S)
WAUKEGAN HARBOR            34     320/  4/  9   N/A
HARRISON CRIB              38     200/ 12/ 15   N/A
BURNHAM HARBOR             37     250/  8       N/A
CALUMET HARBOR             36     270/  3/  4   N/A
MICHIGAN CITY              37     150/ 13/ 18   N/A
$$

ILZ025>027-034>036-040-047-049-050-058-095>099-291400-
WEST-CENTRAL ILLINOIS

CITY           SKY/WX    TMP DP  RH WIND       PRES   REMARKS
QUINCY         CLOUDY    37  30  75 NW21G29   29.98R WCI  26
$$

ILZ028>032-037-038-041>044-048-051>054-059>061-291400-
CENTRAL ILLINOIS

CITY           SKY/WX    TMP DP  RH WIND       PRES   REMARKS
BLOOMINGTON    MOCLDY    37  34  87 NW21G28   29.78R WCI  27
DECATUR        CLOUDY    39  33  79 W22G32    29.84R WCI  29
PEORIA         CLOUDY    37  31  78 NW16G26   29.87R WCI  28
SPRINGFIELD    CLOUDY    39  33  79 NW23G37   29.89R WCI  28
TAYLORVILLE    NOT AVBL
$$

ILZ033-039-045-046-055>057-062-063-291400-
EAST-CENTRAL ILLINOIS

CITY           SKY/WX    TMP DP  RH WIND       PRES   REMARKS
CHAMPAIGN      CLOUDY    38  34  85 W23G32    29.76R WCI  27
MATTOON        PTCLDY    42  35  76 W16G25    29.81R
$$

ILZ079-100>102-291400-
SOUTHWEST ILLINOIS

CITY           SKY/WX    TMP DP  RH WIND       PRES   REMARKS
ALTON          CLOUDY    43  36  75 NW18G29   29.93R
BELLEVILLE     CLOUDY    46  38  76 NW14G26   29.92R
CAHOKIA*       CLOUDY    46  37  71 W23G35    29.95R
$$

ILZ064>066-069>071-074>076-080>082-084>086-088>090-092>094-291400-
SOUTH-CENTRAL ILLINOIS

CITY           SKY/WX    TMP DP  RH WIND       PRES   REMARKS
CARBONDALE     CLEAR     48  39  71 W14       29.90R
MARION         PTCLDY    50  41  71 SW12      29.90R
MT. VERNON     CLEAR     46  37  71 W14G21    29.88R
$$

ILZ067-068-072-073-078-083-087-091-291400-
SOUTHEAST ILLINOIS

CITY           SKY/WX    TMP DP  RH WIND       PRES   REMARKS
LAWRENCEVILLE  MOCLDY    42  36  79 S12       29.83R
$$

ABBREVIATIONS USED IN REMARKS
   TC - TEMPERATURE IN CELSIUS
  WCI - WIND CHILL INDEX
   HX - HEAT INDEX
  VSB - VISIBILITY
$$




USA.gov is the U.S. government's official web portal to all federal, state and local government web resources and services.